Tracking 27419 objects as of 10-Jun-2023
HD Live streaming from Space Station
objects crossing your sky now

GONETS M 17

Track GONETS M 17 now!
10-day predictions


NORAD ID: 46486
Int'l Code: 2020-068A
Perigee: 1,483.9 km
Apogee: 1,519.2 km
Inclination: 82.5 °
Period: 115.9 minutes
Semi major axis: 7872 km
RCS: Unknown
Launch date: September 28, 2020
Source: Commonwealth of Independent States (former USSR) (CIS)
Launch site: PLESETSK MISSILE AND SPACE COMPLEX (PKMTR)
Your satellite tracking list
Your tracking list is empty




NASA's NSSDC Master Catalog

Two Line Element Set (TLE):
1 46486U 20068A   23161.15380621  .00000042  00000-0  23045-3 0  9996
2 46486  82.4967 313.6646 0022412 280.3271  79.5282 12.42891368122315
Source of the keplerian elements: AFSPC